Kill Devil Hills, NC

5:58 AM EDT on April 24, 2017 (GMT -0400)
First Flight

Weather History for KFFA - February, 2014

Change the Weather History Date:

Wednesday, February 12, 2014

  Actual Average (KMQI) Record (KMQI)
Temperature  
Mean Temperature 39 °F -  
Max Temperature 48 °F 50 °F 73 °F (2017)
Min Temperature 31 °F 37 °F 18 °F (1979)
Degree Days  
Heating Degree Days 26    
Moisture  
Dew Point 33 °F    
Average Humidity 81    
Maximum Humidity 99    
Minimum Humidity 64    
Precipitation  
Precipitation 0.21 in - - ()
Sea Level Pressure  
Sea Level Pressure 30.22 in    
Wind  
Wind Speed 10 mph (NE)    
Max Wind Speed 16 mph    
Max Gust Speed 25 mph    
Visibility 8 miles    
Events Rain    
Averages and records for this station are not official NWS values.
T = Trace of Precipitation, MM = Missing Value Source: NWS Daily Summary

Daily Weather History Graph

Daily Weather History Graph

Search for Another Location

Airport or City:

Trip Planner

Search our weather history database for the weather conditions in past years. The results will help you decide how hot, cold, wet, or windy it might be!

Date:

Astronomy

Feb. 12, 2014 Rise Set
Actual Time 6:53 AM EST 5:41 PM EST
Civil Twilight 6:26 AM EST 6:07 PM EST
Nautical Twilight 5:56 AM EST 6:37 PM EST
Astronomical Twilight 5:26 AM EST 7:07 PM EST
Moon 3:54 PM EST (2/12) 5:06 AM EST (2/12)
Length of Visible Light 11h 40m
Length of Day
10h 47m
Waxing Gibbous, 95% of the Moon is Illuminated
Feb 12
Waxing Gibbous
Feb 14
Full
Feb 22
Last Quarter
Mar 1
New
Mar 8
First Quarter

Hourly Weather History & Observations

Time (EST) Temp. Windchill Dew Point Humidity Pressure Visibility Wind Dir Wind Speed Gust Speed Precip Events Conditions
12:15 AM 32.2 °F 24.4 °F 22.5 °F 67% 30.38 in 10.0 mi NNE 9.2 mph 18.4 mph N/A   Overcast
12:35 AM 32.2 °F 21.8 °F 22.3 °F 67% 30.37 in 10.0 mi North 15.0 mph 20.7 mph N/A   Overcast
12:55 AM 32.2 °F 23.2 °F 21.9 °F 66% 30.37 in 10.0 mi NNE 11.5 mph 19.6 mph N/A   Overcast
1:15 AM 32.2 °F 22.3 °F 21.9 °F 66% 30.37 in 10.0 mi NNE 13.8 mph 21.9 mph N/A   Overcast
1:35 AM 32.2 °F 23.2 °F 21.2 °F 64% 30.37 in 10.0 mi NNE 11.5 mph 20.7 mph N/A   Scattered Clouds
1:55 AM 32.0 °F 23.0 °F 21.4 °F 65% 30.37 in 10.0 mi NNE 11.5 mph 20.7 mph N/A   Clear
2:15 AM 32.0 °F 23.6 °F 21.6 °F 65% 30.38 in 10.0 mi NNE 10.4 mph 20.7 mph N/A   Clear
2:35 AM 32.0 °F 24.8 °F 21.7 °F 66% 30.37 in 10.0 mi NNE 8.1 mph 19.6 mph N/A   Scattered Clouds
2:55 AM 32.0 °F 23.0 °F 22.3 °F 67% 30.37 in 10.0 mi NNE 11.5 mph 21.9 mph N/A   Scattered Clouds
3:15 AM 32.0 °F 23.6 °F 22.5 °F 68% 30.37 in 10.0 mi NNE 10.4 mph 20.7 mph N/A   Scattered Clouds
3:35 AM 31.8 °F 22.8 °F 23.2 °F 70% 30.36 in 10.0 mi NNE 11.5 mph 18.4 mph N/A   Scattered Clouds
3:55 AM 32.0 °F 22.5 °F 23.7 °F 71% 30.36 in 10.0 mi NNE 12.7 mph 18.4 mph N/A   Scattered Clouds
4:15 AM 32.0 °F 23.0 °F 23.7 °F 71% 30.36 in 10.0 mi NNE 11.5 mph 20.7 mph N/A   Scattered Clouds
4:35 AM 32.0 °F 24.2 °F 23.9 °F 72% 30.38 in 10.0 mi NNE 9.2 mph 18.4 mph N/A   Scattered Clouds
4:55 AM 32.0 °F 22.5 °F 24.1 °F 73% 30.38 in 10.0 mi NNE 12.7 mph 20.7 mph N/A   Scattered Clouds
5:15 AM 32.2 °F 23.2 °F 24.6 °F 74% 30.38 in 10.0 mi NNE 11.5 mph 21.9 mph N/A   Scattered Clouds
5:35 AM 32.4 °F 23.5 °F 24.8 °F 74% 30.38 in 10.0 mi NNE 11.5 mph 20.7 mph N/A   Scattered Clouds
5:55 AM 32.5 °F 24.2 °F 25.0 °F 74% 30.38 in 10.0 mi NNE 10.4 mph 19.6 mph N/A   Scattered Clouds
6:15 AM 32.9 °F 23.7 °F 25.7 °F 75% 30.38 in 10.0 mi NE 12.7 mph 19.6 mph N/A   Mostly Cloudy
6:35 AM 33.1 °F 24.4 °F 26.2 °F 76% 30.38 in 10.0 mi NNE 11.5 mph 19.6 mph N/A   Mostly Cloudy
6:55 AM 33.6 °F 25.0 °F 26.4 °F 75% 30.39 in 10.0 mi NE 11.5 mph 23.0 mph N/A   Mostly Cloudy
7:15 AM 33.8 °F 25.3 °F 26.4 °F 74% 30.39 in 10.0 mi NNE 11.5 mph 21.9 mph N/A   Scattered Clouds
7:35 AM 34.0 °F 26.0 °F 26.8 °F 75% 30.37 in 10.0 mi NNE 10.4 mph 21.9 mph N/A   Scattered Clouds
7:55 AM 34.5 °F 26.2 °F 27.1 °F 74% 30.38 in 10.0 mi NE 11.5 mph 19.6 mph N/A   Clear
8:15 AM 35.1 °F 26.9 °F 27.7 °F 74% 30.36 in 10.0 mi NE 11.5 mph 21.9 mph N/A   Clear
8:35 AM 35.8 °F 27.8 °F 28.2 °F 74% 30.36 in 10.0 mi NE 11.5 mph 20.7 mph N/A   Clear
8:55 AM 36.3 °F 28.4 °F 28.8 °F 74% 30.37 in 10.0 mi NE 11.5 mph 19.6 mph N/A   Clear
9:15 AM 37.0 °F 29.8 °F 29.1 °F 73% 30.37 in 10.0 mi NE 10.4 mph 18.4 mph N/A   Scattered Clouds
9:35 AM 37.6 °F 31.0 °F 29.1 °F 72% 30.38 in 10.0 mi NE 9.2 mph 17.3 mph N/A   Mostly Cloudy
9:55 AM 38.1 °F 31.7 °F 29.8 °F 72% 30.36 in 10.0 mi NE 9.2 mph 20.7 mph N/A   Scattered Clouds
10:15 AM 38.7 °F 31.4 °F 30.2 °F 72% 30.36 in 10.0 mi NNE 11.5 mph 19.6 mph N/A   Clear
10:35 AM 38.8 °F 33.2 °F 30.4 °F 72% 30.35 in 10.0 mi NE 8.1 mph 17.3 mph N/A   Clear
10:55 AM 39.4 °F 32.3 °F 31.1 °F 72% 30.35 in 10.0 mi NE 11.5 mph 18.4 mph N/A   Scattered Clouds
11:15 AM 39.6 °F 33.5 °F 31.3 °F 72% 30.34 in 10.0 mi NE 9.2 mph 16.1 mph N/A   Mostly Cloudy
11:35 AM 39.6 °F 33.5 °F 31.3 °F 72% 30.33 in 10.0 mi NE 9.2 mph 16.1 mph N/A   Overcast
11:55 AM 39.6 °F - 31.8 °F 74% 30.31 in 10.0 mi Calm Calm - N/A   Overcast
12:15 PM 39.4 °F - 32.0 °F 75% 30.31 in 10.0 mi Calm Calm - N/A   Overcast
12:35 PM 39.6 °F - 32.0 °F 74% 30.30 in 10.0 mi Calm Calm - N/A   Overcast
12:55 PM 39.9 °F 33.9 °F 32.0 °F 73% 30.28 in 10.0 mi NNE 9.2 mph 18.4 mph N/A   Overcast
1:15 PM 40.3 °F 34.4 °F 32.2 °F 73% 30.26 in 10.0 mi NNE 9.2 mph 17.3 mph N/A   Light Drizzle
1:35 PM 40.3 °F 34.9 °F 33.1 °F 75% 30.25 in 10.0 mi NNE 8.1 mph 18.4 mph N/A   Light Drizzle
1:55 PM 40.5 °F 34.6 °F 33.8 °F 77% 30.25 in 10.0 mi NNE 9.2 mph 17.3 mph N/A   Light Drizzle
2:15 PM 40.3 °F 34.4 °F 33.8 °F 78% 30.24 in 10.0 mi NNE 9.2 mph - N/A Rain Light Rain
2:35 PM 40.1 °F 34.7 °F 35.1 °F 82% 30.22 in 7.0 mi NNE 8.1 mph - N/A Rain Light Rain
2:55 PM 39.7 °F 33.2 °F 36.3 °F 88% 30.20 in 7.0 mi NNE 10.4 mph 17.3 mph N/A Rain Rain
3:15 PM 39.7 °F 34.3 °F 36.9 °F 89% 30.19 in 7.0 mi NNE 8.1 mph 18.4 mph N/A Rain Light Rain
3:35 PM 39.9 °F 32.9 °F 37.4 °F 91% 30.18 in 7.0 mi NNE 11.5 mph 17.3 mph N/A Rain Light Rain
3:55 PM 40.1 °F 34.1 °F 37.9 °F 92% 30.17 in 7.0 mi NNE 9.2 mph 18.4 mph 0.01 in Rain Light Rain
4:15 PM 40.3 °F 33.4 °F 38.5 °F 93% 30.16 in 5.0 mi NNE 11.5 mph 17.3 mph N/A Rain Rain
4:35 PM 40.5 °F 35.1 °F 39.2 °F 95% 30.15 in 3.0 mi North 8.1 mph - 0.03 in Rain Rain
4:55 PM 40.8 °F 35.0 °F 39.6 °F 95% 30.13 in 4.0 mi NNE 9.2 mph 17.3 mph 0.06 in Rain Rain
5:15 PM 41.4 °F 35.7 °F 40.3 °F 96% 30.12 in 4.0 mi NNE 9.2 mph 18.4 mph 0.02 in Rain Light Rain
5:35 PM 42.1 °F 36.6 °F 41.0 °F 96% 30.13 in 3.0 mi NE 9.2 mph 16.1 mph 0.05 in Rain Rain
5:55 PM 42.6 °F 38.4 °F 41.7 °F 97% 30.12 in 2.5 mi NE 6.9 mph - 0.08 in Rain Rain
6:15 PM 42.8 °F 40.1 °F 41.9 °F 97% 30.12 in 3.0 mi NE 4.6 mph - 0.02 in Rain Light Rain
6:35 PM 42.6 °F 38.4 °F 41.9 °F 97% 30.10 in 2.5 mi NE 6.9 mph - 0.04 in Rain Light Rain
6:55 PM 43.2 °F 39.0 °F 42.6 °F 98% 30.09 in 3.0 mi ENE 6.9 mph - 0.05 in   Drizzle
7:15 PM 43.2 °F 38.4 °F 42.8 °F 99% 30.08 in 4.0 mi ENE 8.1 mph - 0.01 in   Drizzle
7:35 PM 43.3 °F 38.1 °F 42.8 °F 98% 30.05 in 7.0 mi East 9.2 mph - 0.01 in   Overcast
7:55 PM 43.3 °F 37.2 °F 42.6 °F 97% 30.04 in 5.0 mi East 11.5 mph 16.1 mph 0.01 in   Overcast
8:15 PM 43.7 °F 38.6 °F 42.6 °F 96% 30.02 in 7.0 mi East 9.2 mph - N/A   Overcast
8:35 PM 43.9 °F 38.3 °F 42.6 °F 95% 30.01 in 5.0 mi East 10.4 mph - N/A   Overcast
8:55 PM 44.1 °F 38.6 °F 42.8 °F 95% 29.98 in 5.0 mi East 10.4 mph 20.7 mph N/A   Overcast
9:15 PM 44.2 °F 38.8 °F 43.0 °F 95% 29.97 in 5.0 mi East 10.4 mph 16.1 mph N/A   Overcast
9:35 PM 44.4 °F 39.5 °F 43.3 °F 96% 29.95 in 5.0 mi East 9.2 mph - N/A   Light Drizzle
9:55 PM 44.8 °F 38.7 °F 43.5 °F 95% 29.93 in 5.0 mi East 12.7 mph 17.3 mph N/A   Light Drizzle
10:15 PM 45.5 °F 39.6 °F 44.2 °F 95% 29.89 in 5.0 mi East 12.7 mph 23.0 mph N/A   Light Drizzle
10:35 PM 45.9 °F 39.1 °F 44.6 °F 95% 29.87 in 5.0 mi East 16.1 mph 23.0 mph N/A   Mostly Cloudy
10:55 PM 46.2 °F 40.5 °F 44.8 °F 95% 29.86 in 5.0 mi East 12.7 mph 23.0 mph N/A   Mostly Cloudy
11:15 PM 46.4 °F 40.4 °F 44.8 °F 94% 29.81 in 5.0 mi East 13.8 mph 25.3 mph N/A   Overcast
11:35 PM 47.5 °F - 45.7 °F 93% 29.78 in 5.0 mi East 16.1 mph 24.2 mph N/A   Overcast
11:55 PM 48.0 °F - 46.2 °F 93% 29.75 in 5.0 mi East 15.0 mph 23.0 mph N/A   Mostly Cloudy